EW4533 Weather Reports


Display with metric or nautical units.
time (UTC)temp
F
wind
direction
speed
MPH
gust
MPH
rain 1hr
in
rain 24hr
in
rain mn
in
humidity
%
barometer
mb
20260507043051 80 0 0.0 1.0 0.00 0.00 0.00 100 1016.7
20260507041551 80 128 0.0 3.0 0.00 0.00 0.00 100 1016.9
20260507040057 80 0 0.0 3.0 0.00 0.00 0.00 100 1017.2
20260507034556 80 124 1.0 4.0 0.00 0.00 0.00 100 1017.4
20260507033055 80 0 1.0 4.0 0.00 0.00 0.00 100 1017.6
20260507031550 80 0 0.0 2.0 0.00 0.00 0.00 100 1017.6
20260507030055 80 141 1.0 4.0 0.00 0.00 0.00 100 1017.7
20260507024604 81 142 2.0 5.0 0.00 0.00 0.00 100 1017.8
20260507023053 81 0 1.0 7.0 0.00 0.00 0.00 100 1017.8
20260507021553 81 64 1.0 5.0 0.00 0.00 0.00 100 1017.8
20260507020107 81 155 1.0 6.0 0.00 0.00 0.00 100 1017.8
20260507014601 80 135 1.0 3.0 0.00 0.00 0.00 100 1017.7
20260507013055 81 82 1.0 6.0 0.00 0.00 0.00 100 1017.7
20260507011551 81 93 1.0 4.0 0.00 0.00 0.00 100 1017.6
20260507010059 81 44 0.0 6.0 0.00 0.00 0.00 100 1017.6
20260507004602 81 71 2.0 6.0 0.00 0.00 0.00 100 1017.5
20260507003053 81 146 1.0 5.0 0.00 0.00 0.00 100 1017.4
20260507001551 80 0 0.0 4.0 0.00 0.00 0.00 100 1017.3
20260507000053 81 0 0.0 3.0 0.00 0.00 0.00 100 1017.1
20260506234553 81 0 1.0 6.0 0.00 0.00 0.00 100 1017.1
20260506233103 81 140 0.0 5.0 0.00 0.00 0.00 100 1016.8
20260506231556 81 147 1.0 5.0 0.00 0.00 0.00 100 1016.6
20260506230056 81 117 1.0 6.0 0.00 0.00 0.00 100 1016.6
20260506224553 81 129 2.0 5.0 0.00 0.00 0.00 100 1016.5
20260506223059 82 113 2.0 6.0 0.00 0.00 0.00 100 1016.4
20260506221612 82 124 1.0 5.0 0.00 0.00 0.00 100 1016.2
20260506220053 82 73 3.0 8.0 0.00 0.00 0.00 100 1015.9
20260506214556 82 132 2.0 7.0 0.00 0.00 0.00 100 1015.7
20260506213112 82 93 2.0 6.0 0.00 0.00 0.00 100 1015.6
20260506211555 82 137 2.0 7.0 0.00 0.00 0.00 100 1015.7
20260506210052 82 0 2.0 5.0 0.00 0.00 0.00 100 1015.6
20260506204600 83 128 3.0 6.0 0.00 0.00 0.00 100 1015.6
20260506203056 83 134 3.0 7.0 0.00 0.00 0.00 100 1015.5
20260506201550 83 94 3.0 8.0 0.00 0.00 0.00 100 1015.4
20260506200052 83 219 3.0 7.0 0.00 0.00 0.00 100 1015.3
20260506194550 84 235 3.0 9.0 0.00 0.00 0.00 100 1015.3
20260506193053 84 31 4.0 10.0 0.00 0.00 0.00 100 1015.4
20260506191549 85 120 2.0 9.0 0.00 0.00 0.00 100 1015.6
20260506190053 84 256 4.0 9.0 0.00 0.00 0.00 100 1015.6
20260506184553 85 82 3.0 10.0 0.00 0.00 0.00 100 1015.7
20260506183104 85 149 3.0 11.0 0.00 0.00 0.00 100 1015.8
20260506181621 85 94 3.0 10.0 0.00 0.00 0.00 100 1015.9
20260506180054 85 159 4.0 11.0 0.00 0.00 0.00 100 1016.0
20260506174555 84 162 4.0 10.0 0.00 0.00 0.00 100 1016.2
20260506173058 83 123 4.0 9.0 0.00 0.00 0.00 100 1016.4
20260506171600 82 102 3.0 8.0 0.00 0.00 0.00 100 1016.6
20260506170057 82 160 3.0 9.0 0.00 0.00 0.00 100 1016.8
20260506164552 83 60 2.0 12.0 0.00 0.00 0.00 100 1017.2
20260506163103 84 182 3.0 10.0 0.00 0.00 0.00 100 1017.2
20260506161557 85 63 4.0 11.0 0.00 0.00 0.00 100 1017.5
20260506160054 85 147 4.0 14.0 0.00 0.00 0.00 100 1017.6
20260506154601 86 68 3.0 10.0 0.00 0.00 0.00 100 1017.8
20260506153110 85 97 3.0 10.0 0.00 0.00 0.00 100 1017.9
20260506151551 86 150 4.0 10.0 0.00 0.00 0.00 100 1017.9
20260506150059 86 139 4.0 10.0 0.00 0.00 0.00 100 1018.0
20260506144555 87 191 4.0 11.0 0.00 0.00 0.00 100 1018.2
20260506143050 86 203 5.0 11.0 0.00 0.00 0.00 100 1018.2
20260506141549 87 214 4.0 12.0 0.00 0.00 0.00 100 1018.2
20260506140049 86 134 4.0 11.0 0.00 0.00 0.00 100 1018.1
20260506134550 86 64 4.0 9.0 0.00 0.00 0.00 100 1018.1
20260506133049 86 165 4.0 10.0 0.00 0.00 0.00 100 1018.0
20260506131553 86 101 3.0 11.0 0.00 0.00 0.00 100 1018.1
20260506130056 85 111 5.0 10.0 0.00 0.00 0.00 100 1018.1
20260506124551 86 155 4.0 13.0 0.00 0.00 0.00 100 1018.0
20260506123051 85 59 4.0 13.0 0.00 0.00 0.00 100 1018.1
20260506121613 85 55 4.0 10.0 0.00 0.00 0.00 100 1018.0
20260506120151 85 56 4.0 12.0 0.00 0.00 0.00 100 1018.0
20260506114550 84 101 3.0 10.0 0.00 0.00 0.00 100 1017.9
20260506113050 84 110 3.0 9.0 0.00 0.00 0.00 100 1017.8
20260506111551 83 124 4.0 11.0 0.00 0.00 0.00 100 1017.7
20260506110050 83 41 4.0 15.0 0.00 0.00 0.00 100 1017.5
20260506104555 82 306 5.0 12.0 0.00 0.00 0.00 100 1017.3
20260506103054 81 146 5.0 13.0 0.00 0.00 0.00 100 1017.1
20260506101546 80 61 4.0 10.0 0.00 0.00 0.00 100 1016.8
20260506100048 81 108 4.0 9.0 0.00 0.00 0.00 100 1016.6
20260506094550 81 146 4.0 9.0 0.00 0.00 0.00 100 1016.5
20260506093050 81 27 3.0 10.0 0.00 0.00 0.00 100 1016.4
20260506091554 80 126 3.0 10.0 0.00 0.00 0.00 100 1016.3
20260506090057 80 108 1.0 8.0 0.00 0.00 0.00 100 1016.3
20260506084551 80 116 4.0 9.0 0.00 0.00 0.00 100 1016.3
20260506083052 80 115 2.0 6.0 0.00 0.00 0.00 100 1016.1
20260506081554 80 0 2.0 5.0 0.00 0.00 0.00 100 1016.1
20260506073050 80 117 1.0 7.0 0.00 0.00 0.00 100 1016.0
20260506071601 80 100 2.0 6.0 0.00 0.00 0.00 100 1015.9
20260506061554 80 131 1.0 6.0 0.00 0.00 0.00 100 1016.3
20260506044553 81 156 2.0 6.0 0.00 0.00 0.00 100 1017.0